| time (UTC) | temp F | wind direction | speed knots | gust knots | rain 1hr in | rain 24hr in | rain mn in | humidity % | barometer mb |
| 20260903041033 | 56 | 116 | 0.0 | 0.9 | 0.00 | 0.00 | 0.00 | 82 | 1007.6 |
| 20260903040532 | 56 | 113 | 0.9 | 2.6 | 0.00 | 0.00 | 0.00 | 82 | 1007.6 |
| 20260903040029 | 56 | 119 | 0.0 | 0.9 | 0.00 | 0.00 | 0.00 | 82 | 1007.6 |
| 20260903035523 | 56 | 138 | 0.9 | 1.7 | 0.00 | 0.00 | 0.00 | 83 | 1007.3 |
| 20260903035019 | 57 | 96 | 0.9 | 0.9 | 0.00 | 0.00 | 0.00 | 82 | 1007.3 |
| 20260903034514 | 57 | 107 | 0.0 | 2.6 | 0.00 | 0.00 | 0.00 | 81 | 1007.3 |
| 20260903034008 | 57 | 115 | 0.9 | 0.9 | 0.00 | 0.00 | 0.00 | 80 | 1006.9 |
| 20260903033504 | 57 | 114 | 3.5 | 6.1 | 0.00 | 0.00 | 0.00 | 80 | 1006.9 |
| 20260903032958 | 57 | 192 | 0.9 | 1.7 | 0.00 | 0.00 | 0.00 | 80 | 1006.6 |
| 20260903032453 | 57 | 126 | 0.9 | 8.7 | 0.00 | 0.00 | 0.00 | 80 | 1006.6 |
| 20260903031948 | 57 | 122 | 1.7 | 7.0 | 0.00 | 0.00 | 0.00 | 81 | 1006.6 |
| 20260903031442 | 57 | 119 | 1.7 | 2.6 | 0.00 | 0.00 | 0.00 | 81 | 1006.6 |
| 20260903030932 | 57 | 149 | 2.6 | 5.2 | 0.00 | 0.00 | 0.00 | 81 | 1006.3 |
| 20260903030428 | 57 | 110 | 0.9 | 3.5 | 0.00 | 0.00 | 0.00 | 81 | 1006.3 |
| 20260903025924 | 58 | 98 | 0.9 | 2.6 | 0.00 | 0.00 | 0.00 | 81 | 1006.3 |
| 20260903025419 | 58 | 114 | 0.9 | 2.6 | 0.00 | 0.00 | 0.00 | 81 | 1006.3 |
| 20260903024915 | 58 | 141 | 0.9 | 3.5 | 0.00 | 0.00 | 0.00 | 81 | 1006.3 |
| 20260903024408 | 58 | 179 | 3.5 | 6.1 | 0.00 | 0.00 | 0.00 | 81 | 1005.9 |
| 20260903023903 | 58 | 135 | 1.7 | 3.5 | 0.00 | 0.00 | 0.00 | 81 | 1005.9 |
| 20260903023359 | 58 | 128 | 1.7 | 5.2 | 0.00 | 0.00 | 0.00 | 80 | 1005.6 |
| 20260903022854 | 59 | 87 | 2.6 | 6.1 | 0.00 | 0.00 | 0.00 | 80 | 1005.6 |
| 20260903022353 | 59 | 190 | 3.5 | 8.7 | 0.00 | 0.00 | 0.00 | 80 | 1005.2 |
| 20260903021852 | 59 | 19 | 2.6 | 5.2 | 0.00 | 0.00 | 0.00 | 80 | 1005.2 |
| 20260903021348 | 59 | 152 | 7.0 | 13.0 | 0.00 | 0.00 | 0.00 | 79 | 1005.2 |
| 20260903020847 | 59 | 118 | 4.3 | 7.0 | 0.00 | 0.00 | 0.00 | 79 | 1004.9 |
| 20260903020343 | 60 | 179 | 3.5 | 8.7 | 0.00 | 0.00 | 0.00 | 78 | 1005.2 |
| 20260903015837 | 59 | 158 | 4.3 | 18.2 | 0.00 | 0.00 | 0.00 | 78 | 1004.9 |
| 20260903015333 | 59 | 149 | 5.2 | 7.0 | 0.00 | 0.00 | 0.00 | 80 | 1004.9 |
| 20260903014828 | 59 | 166 | 5.2 | 11.3 | 0.00 | 0.00 | 0.00 | 80 | 1004.9 |
| 20260903014327 | 59 | 219 | 4.3 | 16.5 | 0.00 | 0.00 | 0.00 | 81 | 1004.9 |
| 20260903013817 | 59 | 152 | 3.5 | 9.6 | 0.00 | 0.00 | 0.00 | 82 | 1004.6 |
| 20260903013316 | 59 | 131 | 4.3 | 9.6 | 0.00 | 0.00 | 0.00 | 82 | 1004.9 |
| 20260903012815 | 59 | 105 | 4.3 | 18.2 | 0.00 | 0.00 | 0.00 | 81 | 1004.9 |
| 20260903012309 | 59 | 157 | 7.8 | 13.9 | 0.00 | 0.00 | 0.00 | 82 | 1004.6 |
| 20260903011803 | 59 | 103 | 7.0 | 12.2 | 0.00 | 0.00 | 0.00 | 82 | 1004.6 |
| 20260903011303 | 59 | 82 | 7.0 | 15.6 | 0.00 | 0.00 | 0.00 | 82 | 1004.6 |
| 20260903010758 | 59 | 182 | 8.7 | 13.9 | 0.00 | 0.00 | 0.00 | 83 | 1004.6 |
| 20260903010254 | 59 | 144 | 7.8 | 9.6 | 0.00 | 0.00 | 0.00 | 83 | 1004.6 |
| 20260903005752 | 59 | 213 | 7.8 | 14.8 | 0.00 | 0.00 | 0.00 | 82 | 1004.9 |
| 20260903005247 | 59 | 174 | 7.0 | 13.9 | 0.00 | 0.00 | 0.00 | 82 | 1004.9 |
| 20260903004743 | 59 | 110 | 7.8 | 13.0 | 0.00 | 0.00 | 0.00 | 82 | 1004.9 |
| 20260903004238 | 58 | 153 | 7.0 | 14.8 | 0.00 | 0.00 | 0.00 | 83 | 1004.9 |
| 20260903003734 | 58 | 247 | 7.8 | 13.9 | 0.00 | 0.00 | 0.00 | 84 | 1004.9 |
| 20260903003229 | 58 | 103 | 5.2 | 12.2 | 0.00 | 0.00 | 0.00 | 85 | 1004.9 |
| 20260903002723 | 58 | 164 | 9.6 | 13.9 | 0.00 | 0.00 | 0.00 | 85 | 1004.9 |
| 20260903002218 | 57 | 123 | 5.2 | 16.5 | 0.00 | 0.00 | 0.00 | 86 | 1004.6 |
| 20260903001713 | 58 | 126 | 7.0 | 16.5 | 0.00 | 0.00 | 0.00 | 87 | 1004.9 |
| 20260903001207 | 58 | 161 | 3.5 | 9.6 | 0.00 | 0.00 | 0.00 | 86 | 1004.6 |
| 20260903000702 | 58 | 104 | 2.6 | 12.2 | 0.00 | 0.00 | 0.00 | 85 | 1004.9 |
| 20260903000204 | 58 | 128 | 8.7 | 12.2 | 0.00 | 0.00 | 0.00 | 84 | 1004.9 |
| 20260902235700 | 58 | 157 | 4.3 | 12.2 | 0.00 | 0.00 | 0.00 | 85 | 1004.6 |
| 20260902235156 | 58 | 232 | 8.7 | 13.0 | 0.00 | 0.00 | 0.00 | 86 | 1004.6 |
| 20260902234655 | 58 | 215 | 7.8 | 13.0 | 0.00 | 0.00 | 0.00 | 86 | 1004.6 |
| 20260902234154 | 58 | 56 | 9.6 | 16.5 | 0.00 | 0.00 | 0.00 | 86 | 1004.9 |
| 20260902233649 | 58 | 160 | 2.6 | 11.3 | 0.00 | 0.00 | 0.00 | 86 | 1004.6 |
| 20260902233149 | 58 | 191 | 7.8 | 12.2 | 0.00 | 0.00 | 0.00 | 87 | 1004.9 |
| 20260902232648 | 57 | 113 | 3.5 | 11.3 | 0.00 | 0.00 | 0.00 | 87 | 1004.9 |
| 20260902232147 | 57 | 204 | 8.7 | 15.6 | 0.00 | 0.00 | 0.00 | 87 | 1005.2 |
| 20260902231642 | 57 | 184 | 7.8 | 13.0 | 0.00 | 0.00 | 0.00 | 87 | 1004.9 |
| 20260902231137 | 57 | 161 | 11.3 | 15.6 | 0.00 | 0.00 | 0.00 | 87 | 1005.2 |
| 20260902230632 | 57 | 157 | 13.0 | 18.2 | 0.00 | 0.00 | 0.00 | 86 | 1005.2 |
| 20260902230130 | 58 | 178 | 11.3 | 14.8 | 0.00 | 0.00 | 0.00 | 85 | 1005.2 |
| 20260902225626 | 58 | 148 | 4.3 | 13.9 | 0.00 | 0.00 | 0.00 | 84 | 1005.2 |
| 20260902225125 | 59 | 124 | 7.8 | 15.6 | 0.00 | 0.00 | 0.00 | 83 | 1004.9 |
| 20260902224623 | 59 | 158 | 5.2 | 12.2 | 0.00 | 0.00 | 0.00 | 81 | 1005.2 |
| 20260902224120 | 59 | 206 | 8.7 | 16.5 | 0.00 | 0.00 | 0.00 | 80 | 1005.2 |
| 20260902223616 | 60 | 106 | 5.2 | 18.2 | 0.00 | 0.00 | 0.00 | 79 | 1005.2 |
| 20260902223115 | 61 | 218 | 1.7 | 9.6 | 0.00 | 0.00 | 0.00 | 78 | 1005.2 |
| 20260902222614 | 61 | 205 | 3.5 | 15.6 | 0.00 | 0.00 | 0.00 | 76 | 1005.2 |
| 20260902222113 | 61 | 115 | 5.2 | 15.6 | 0.00 | 0.00 | 0.00 | 75 | 1005.2 |
| 20260902221607 | 62 | 207 | 2.6 | 13.0 | 0.00 | 0.00 | 0.00 | 74 | 1005.2 |
| 20260902221102 | 62 | 130 | 5.2 | 16.5 | 0.00 | 0.00 | 0.00 | 74 | 1005.2 |
| 20260902220557 | 62 | 147 | 11.3 | 27.8 | 0.00 | 0.00 | 0.00 | 74 | 1005.2 |
| 20260902220052 | 62 | 241 | 12.2 | 19.1 | 0.00 | 0.00 | 0.00 | 75 | 1005.2 |
| 20260902215548 | 62 | 218 | 8.7 | 15.6 | 0.00 | 0.00 | 0.00 | 74 | 1004.9 |
| 20260902215043 | 62 | 192 | 7.8 | 11.3 | 0.00 | 0.00 | 0.00 | 75 | 1005.2 |
| 20260902214538 | 63 | 203 | 12.2 | 18.2 | 0.00 | 0.00 | 0.00 | 74 | 1005.2 |
| 20260902214037 | 63 | 151 | 5.2 | 15.6 | 0.00 | 0.00 | 0.00 | 73 | 1005.2 |
| 20260902213533 | 63 | 190 | 0.9 | 16.5 | 0.00 | 0.00 | 0.00 | 75 | 1005.2 |
| 20260902213032 | 63 | 119 | 9.6 | 16.5 | 0.00 | 0.00 | 0.00 | 75 | 1005.6 |
| 20260902212528 | 63 | 131 | 5.2 | 9.6 | 0.00 | 0.00 | 0.00 | 76 | 1005.2 |
| 20260902212024 | 63 | 147 | 10.4 | 20.9 | 0.00 | 0.00 | 0.00 | 77 | 1005.2 |
| 20260902211520 | 64 | 108 | 9.6 | 15.6 | 0.00 | 0.00 | 0.00 | 75 | 1005.2 |
| 20260902211015 | 65 | 117 | 6.1 | 11.3 | 0.00 | 0.00 | 0.00 | 72 | 1005.6 |
| 20260902210514 | 64 | 26 | 5.2 | 13.9 | 0.00 | 0.00 | 0.00 | 72 | 1005.6 |
| 20260902210014 | 64 | 193 | 5.2 | 7.8 | 0.00 | 0.00 | 0.00 | 72 | 1005.2 |
| 20260902205508 | 64 | 104 | 4.3 | 12.2 | 0.00 | 0.00 | 0.00 | 73 | 1005.2 |
| 20260902205004 | 64 | 110 | 5.2 | 15.6 | 0.00 | 0.00 | 0.00 | 75 | 1005.6 |
| 20260902204504 | 64 | 179 | 7.8 | 13.9 | 0.00 | 0.00 | 0.00 | 74 | 1005.2 |
| 20260902203959 | 63 | 98 | 5.2 | 13.0 | 0.00 | 0.00 | 0.00 | 76 | 1005.6 |
| 20260902203454 | 63 | 153 | 8.7 | 9.6 | 0.00 | 0.00 | 0.00 | 76 | 1005.6 |
| 20260902202952 | 63 | 119 | 6.1 | 8.7 | 0.00 | 0.00 | 0.00 | 77 | 1005.6 |
| 20260902202448 | 62 | 178 | 5.2 | 12.2 | 0.00 | 0.00 | 0.00 | 78 | 1005.9 |
| 20260902201945 | 63 | 129 | 12.2 | 15.6 | 0.00 | 0.00 | 0.00 | 76 | 1005.6 |
| 20260902201440 | 64 | 167 | 4.3 | 12.2 | 0.00 | 0.00 | 0.00 | 75 | 1005.9 |
| 20260902200940 | 64 | 211 | 9.6 | 14.8 | 0.00 | 0.00 | 0.00 | 72 | 1005.9 |
| 20260902200435 | 66 | 150 | 10.4 | 14.8 | 0.00 | 0.00 | 0.00 | 67 | 1005.9 |
| 20260902195930 | 66 | 233 | 5.2 | 21.7 | 0.00 | 0.00 | 0.00 | 66 | 1005.6 |
| 20260902195426 | 66 | 156 | 8.7 | 20.9 | 0.00 | 0.00 | 0.00 | 65 | 1005.6 |
| 20260902194920 | 66 | 142 | 7.8 | 13.9 | 0.00 | 0.00 | 0.00 | 66 | 1005.6 |
| 20260902194419 | 66 | 191 | 6.1 | 12.2 | 0.00 | 0.00 | 0.00 | 67 | 1005.6 |
| 20260902193915 | 66 | 172 | 7.8 | 13.9 | 0.00 | 0.00 | 0.00 | 66 | 1005.6 |
| 20260902193411 | 66 | 142 | 4.3 | 12.2 | 0.00 | 0.00 | 0.00 | 66 | 1005.6 |
| 20260902192910 | 66 | 171 | 8.7 | 16.5 | 0.00 | 0.00 | 0.00 | 67 | 1005.6 |
| 20260902192409 | 67 | 151 | 18.2 | 22.6 | 0.00 | 0.00 | 0.00 | 66 | 1005.6 |
| 20260902191908 | 66 | 104 | 7.8 | 21.7 | 0.00 | 0.00 | 0.00 | 66 | 1005.6 |
| 20260902191404 | 64 | 168 | 4.3 | 14.8 | 0.00 | 0.00 | 0.00 | 69 | 1005.6 |
| 20260902190858 | 65 | 188 | 4.3 | 18.2 | 0.00 | 0.00 | 0.00 | 69 | 1005.6 |
| 20260902190353 | 65 | 201 | 7.8 | 13.0 | 0.00 | 0.00 | 0.00 | 69 | 1005.9 |
| 20260902185849 | 63 | 178 | 12.2 | 16.5 | 0.00 | 0.00 | 0.00 | 71 | 1005.6 |
| 20260902185345 | 63 | 175 | 7.0 | 15.6 | 0.00 | 0.00 | 0.00 | 72 | 1005.9 |
| 20260902184840 | 63 | 87 | 7.0 | 12.2 | 0.00 | 0.00 | 0.00 | 72 | 1005.9 |
| 20260902184335 | 62 | 204 | 5.2 | 12.2 | 0.00 | 0.00 | 0.00 | 74 | 1006.3 |
| 20260902183830 | 62 | 132 | 3.5 | 11.3 | 0.00 | 0.00 | 0.00 | 74 | 1006.3 |
| 20260902183327 | 62 | 146 | 4.3 | 7.0 | 0.00 | 0.00 | 0.00 | 74 | 1006.3 |
| 20260902182822 | 62 | 129 | 7.0 | 13.0 | 0.00 | 0.00 | 0.00 | 74 | 1006.3 |
| 20260902182319 | 62 | 147 | 7.8 | 15.6 | 0.00 | 0.00 | 0.00 | 73 | 1006.3 |
| 20260902181815 | 62 | 160 | 9.6 | 13.0 | 0.00 | 0.00 | 0.00 | 75 | 1006.6 |
| 20260902181310 | 62 | 196 | 7.0 | 11.3 | 0.00 | 0.00 | 0.00 | 75 | 1006.6 |
| 20260902180804 | 62 | 153 | 5.2 | 12.2 | 0.00 | 0.00 | 0.00 | 75 | 1006.6 |
| 20260902180300 | 62 | 108 | 3.5 | 13.0 | 0.00 | 0.00 | 0.00 | 75 | 1006.6 |
| 20260902175755 | 62 | 209 | 6.1 | 12.2 | 0.00 | 0.00 | 0.00 | 75 | 1006.6 |
| 20260902175251 | 62 | 182 | 7.0 | 9.6 | 0.00 | 0.00 | 0.00 | 76 | 1006.9 |
| 20260902174746 | 61 | 145 | 5.2 | 11.3 | 0.00 | 0.00 | 0.00 | 77 | 1006.9 |
| 20260902174242 | 61 | 163 | 6.1 | 9.6 | 0.00 | 0.00 | 0.00 | 77 | 1006.9 |
| 20260902173737 | 61 | 161 | 7.8 | 12.2 | 0.00 | 0.00 | 0.00 | 76 | 1006.6 |
| 20260902173237 | 61 | 184 | 3.5 | 9.6 | 0.00 | 0.00 | 0.00 | 77 | 1006.9 |
| 20260902172731 | 61 | 137 | 5.2 | 8.7 | 0.00 | 0.00 | 0.00 | 77 | 1006.9 |
| 20260902172226 | 61 | 179 | 7.8 | 9.6 | 0.00 | 0.00 | 0.00 | 77 | 1006.9 |
| 20260902171721 | 61 | 170 | 9.6 | 14.8 | 0.00 | 0.00 | 0.00 | 77 | 1006.9 |
| 20260902171216 | 61 | 88 | 1.7 | 14.8 | 0.00 | 0.00 | 0.00 | 77 | 1006.9 |
| 20260902170712 | 61 | 86 | 6.1 | 14.8 | 0.00 | 0.00 | 0.00 | 77 | 1006.9 |
| 20260902170208 | 61 | 121 | 7.0 | 14.8 | 0.00 | 0.00 | 0.00 | 77 | 1006.9 |
| 20260902165702 | 61 | 169 | 7.0 | 12.2 | 0.00 | 0.00 | 0.00 | 76 | 1006.9 |
| 20260902165156 | 62 | 124 | 6.1 | 14.8 | 0.00 | 0.00 | 0.00 | 75 | 1006.9 |
| 20260902164652 | 62 | 132 | 3.5 | 11.3 | 0.00 | 0.00 | 0.00 | 75 | 1006.9 |
| 20260902164150 | 62 | 185 | 3.5 | 13.0 | 0.00 | 0.00 | 0.00 | 76 | 1006.9 |
| 20260902163646 | 62 | 193 | 7.0 | 11.3 | 0.00 | 0.00 | 0.00 | 75 | 1006.9 |
| 20260902163145 | 62 | 173 | 4.3 | 16.5 | 0.00 | 0.00 | 0.00 | 75 | 1006.9 |
| 20260902162644 | 62 | 99 | 7.0 | 15.6 | 0.00 | 0.00 | 0.00 | 75 | 1006.9 |
| 20260902162139 | 61 | 139 | 8.7 | 13.0 | 0.00 | 0.00 | 0.00 | 76 | 1006.9 |
| 20260902161634 | 62 | 39 | 6.1 | 12.2 | 0.00 | 0.00 | 0.00 | 75 | 1006.9 |
| 20260902161130 | 62 | 63 | 3.5 | 13.0 | 0.00 | 0.00 | 0.00 | 75 | 1006.9 |
| 20260902160626 | 61 | 126 | 7.8 | 11.3 | 0.00 | 0.00 | 0.00 | 76 | 1007.3 |
| 20260902160120 | 61 | 196 | 8.7 | 13.0 | 0.00 | 0.00 | 0.00 | 76 | 1006.9 |
| 20260902155613 | 62 | 134 | 5.2 | 12.2 | 0.00 | 0.00 | 0.00 | 75 | 1007.3 |
| 20260902155112 | 62 | 106 | 6.1 | 19.1 | 0.00 | 0.00 | 0.00 | 76 | 1006.9 |
| 20260902154607 | 61 | 180 | 9.6 | 14.8 | 0.00 | 0.00 | 0.00 | 77 | 1006.9 |
| 20260902154103 | 61 | 133 | 5.2 | 22.6 | 0.00 | 0.00 | 0.00 | 77 | 1006.9 |
| 20260902153601 | 60 | 171 | 13.9 | 27.8 | 0.00 | 0.00 | 0.00 | 78 | 1006.6 |
| 20260902153057 | 60 | 188 | 4.3 | 16.5 | 0.00 | 0.00 | 0.00 | 79 | 1006.9 |
| 20260902152553 | 60 | 160 | 6.1 | 20.0 | 0.00 | 0.00 | 0.00 | 79 | 1006.9 |
| 20260902152048 | 60 | 167 | 8.7 | 15.6 | 0.00 | 0.00 | 0.00 | 80 | 1006.9 |
| 20260902151544 | 60 | 172 | 8.7 | 13.9 | 0.00 | 0.00 | 0.00 | 80 | 1006.9 |
| 20260902151043 | 60 | 118 | 6.1 | 12.2 | 0.00 | 0.00 | 0.00 | 81 | 1007.3 |
| 20260902150538 | 59 | 191 | 9.6 | 12.2 | 0.00 | 0.00 | 0.00 | 81 | 1007.3 |
| 20260902150034 | 59 | 91 | 4.3 | 7.8 | 0.00 | 0.00 | 0.00 | 81 | 1007.3 |
| 20260902145528 | 59 | 119 | 2.6 | 13.9 | 0.00 | 0.00 | 0.00 | 82 | 1007.3 |
| 20260902145022 | 59 | 118 | 9.6 | 18.2 | 0.00 | 0.00 | 0.00 | 82 | 1007.6 |
| 20260902144519 | 59 | 172 | 4.3 | 13.0 | 0.00 | 0.00 | 0.00 | 82 | 1007.3 |
| 20260902144014 | 59 | 100 | 6.1 | 11.3 | 0.00 | 0.00 | 0.00 | 81 | 1007.6 |
| 20260902143509 | 59 | 201 | 7.0 | 14.8 | 0.00 | 0.00 | 0.00 | 81 | 1007.3 |
| 20260902143005 | 59 | 162 | 3.5 | 13.0 | 0.00 | 0.00 | 0.00 | 82 | 1007.6 |
| 20260902142500 | 59 | 96 | 5.2 | 13.0 | 0.00 | 0.00 | 0.00 | 83 | 1007.6 |
| 20260902141955 | 59 | 164 | 7.8 | 9.6 | 0.00 | 0.00 | 0.00 | 83 | 1007.6 |
| 20260902141449 | 59 | 178 | 1.7 | 13.9 | 0.00 | 0.00 | 0.00 | 83 | 1007.6 |
| 20260902140949 | 58 | 292 | 7.8 | 15.6 | 0.00 | 0.00 | 0.00 | 83 | 1007.6 |
| 20260902140445 | 58 | 181 | 4.3 | 14.8 | 0.00 | 0.00 | 0.00 | 84 | 1007.6 |
| 20260902135939 | 58 | 141 | 4.3 | 14.8 | 0.00 | 0.00 | 0.00 | 84 | 1007.6 |
| 20260902135435 | 58 | 166 | 9.6 | 12.2 | 0.00 | 0.00 | 0.00 | 84 | 1007.6 |
| 20260902134933 | 58 | 195 | 7.8 | 11.3 | 0.00 | 0.00 | 0.00 | 85 | 1007.9 |
| 20260902134430 | 58 | 141 | 4.3 | 12.2 | 0.00 | 0.00 | 0.00 | 85 | 1007.6 |
| 20260902133924 | 58 | 165 | 8.7 | 15.6 | 0.00 | 0.00 | 0.00 | 85 | 1007.6 |
| 20260902133419 | 58 | 148 | 7.8 | 20.0 | 0.00 | 0.00 | 0.00 | 85 | 1007.6 |
| 20260902132914 | 58 | 169 | 11.3 | 20.0 | 0.00 | 0.00 | 0.00 | 85 | 1007.6 |
| 20260902132409 | 58 | 219 | 7.8 | 20.0 | 0.00 | 0.00 | 0.00 | 84 | 1007.6 |
| 20260902131904 | 58 | 142 | 5.2 | 9.6 | 0.00 | 0.00 | 0.00 | 85 | 1007.6 |
| 20260902131401 | 58 | 128 | 7.0 | 18.2 | 0.00 | 0.00 | 0.00 | 85 | 1007.6 |
| 20260902130900 | 58 | 151 | 9.6 | 16.5 | 0.00 | 0.00 | 0.00 | 85 | 1007.6 |
| 20260902130356 | 58 | 97 | 9.6 | 15.6 | 0.00 | 0.00 | 0.00 | 85 | 1007.3 |
| 20260902125850 | 58 | 193 | 2.6 | 12.2 | 0.00 | 0.00 | 0.00 | 86 | 1007.9 |
| 20260902125347 | 58 | 158 | 7.8 | 13.9 | 0.00 | 0.00 | 0.00 | 86 | 1007.6 |
| 20260902124843 | 58 | 159 | 8.7 | 13.0 | 0.00 | 0.00 | 0.00 | 85 | 1007.6 |
| 20260902124339 | 58 | 170 | 7.8 | 15.6 | 0.00 | 0.00 | 0.00 | 85 | 1007.6 |
| 20260902123833 | 58 | 49 | 7.8 | 12.2 | 0.00 | 0.00 | 0.00 | 85 | 1007.6 |
| 20260902123330 | 58 | 165 | 6.1 | 8.7 | 0.00 | 0.00 | 0.00 | 84 | 1007.6 |
| 20260902122828 | 58 | 180 | 7.0 | 9.6 | 0.00 | 0.00 | 0.00 | 83 | 1007.6 |
| 20260902122325 | 58 | 177 | 5.2 | 13.0 | 0.00 | 0.00 | 0.00 | 82 | 1007.9 |
| 20260902121824 | 59 | 182 | 2.6 | 7.0 | 0.00 | 0.00 | 0.00 | 82 | 1007.9 |
| 20260902121319 | 59 | 144 | 3.5 | 5.2 | 0.00 | 0.00 | 0.00 | 82 | 1007.9 |
| 20260902120815 | 58 | 101 | 6.1 | 12.2 | 0.00 | 0.00 | 0.00 | 82 | 1007.9 |
| 20260902120311 | 58 | 155 | 5.2 | 11.3 | 0.00 | 0.00 | 0.00 | 84 | 1007.6 |
| 20260902115805 | 57 | 116 | 4.3 | 6.1 | 0.00 | 0.00 | 0.00 | 84 | 1007.9 |
| 20260902115301 | 58 | 174 | 2.6 | 9.6 | 0.00 | 0.00 | 0.00 | 84 | 1007.9 |
| 20260902114757 | 58 | 121 | 3.5 | 7.0 | 0.00 | 0.00 | 0.00 | 84 | 1007.9 |
| 20260902114253 | 58 | 155 | 5.2 | 7.0 | 0.00 | 0.00 | 0.00 | 83 | 1007.9 |
| 20260902113747 | 58 | 182 | 5.2 | 8.7 | 0.00 | 0.00 | 0.00 | 82 | 1007.9 |
| 20260902113243 | 58 | 83 | 6.1 | 8.7 | 0.00 | 0.00 | 0.00 | 82 | 1008.3 |
| 20260902112742 | 58 | 200 | 5.2 | 7.0 | 0.00 | 0.00 | 0.00 | 82 | 1008.3 |
| 20260902112239 | 58 | 117 | 2.6 | 8.7 | 0.00 | 0.00 | 0.00 | 82 | 1008.3 |
| 20260902111734 | 58 | 164 | 2.6 | 8.7 | 0.00 | 0.00 | 0.00 | 82 | 1008.6 |
| 20260902111231 | 58 | 210 | 3.5 | 6.1 | 0.00 | 0.00 | 0.00 | 82 | 1008.6 |
| 20260902110726 | 58 | 179 | 2.6 | 6.1 | 0.00 | 0.00 | 0.00 | 82 | 1008.6 |
| 20260902110222 | 58 | 151 | 2.6 | 7.8 | 0.00 | 0.00 | 0.00 | 81 | 1009.0 |
| 20260902105721 | 58 | 78 | 3.5 | 7.0 | 0.00 | 0.00 | 0.00 | 81 | 1009.0 |
| 20260902105217 | 58 | 114 | 3.5 | 3.5 | 0.00 | 0.00 | 0.00 | 82 | 1008.6 |
| 20260902104712 | 58 | 160 | 2.6 | 7.8 | 0.00 | 0.00 | 0.00 | 81 | 1009.0 |
| 20260902104208 | 58 | 112 | 0.9 | 7.0 | 0.00 | 0.00 | 0.00 | 81 | 1009.0 |
| 20260902103707 | 59 | 137 | 5.2 | 6.1 | 0.00 | 0.00 | 0.00 | 81 | 1009.0 |
| 20260902103202 | 58 | 163 | 1.7 | 5.2 | 0.00 | 0.00 | 0.00 | 80 | 1009.0 |
| 20260902102658 | 59 | 124 | 5.2 | 7.8 | 0.00 | 0.00 | 0.00 | 80 | 1009.0 |
| 20260902102155 | 59 | 122 | 5.2 | 7.8 | 0.00 | 0.00 | 0.00 | 80 | 1009.0 |
| 20260902101650 | 59 | 151 | 4.3 | 6.1 | 0.00 | 0.00 | 0.00 | 80 | 1009.0 |
| 20260902101150 | 59 | 135 | 2.6 | 5.2 | 0.00 | 0.00 | 0.00 | 79 | 1009.0 |
| 20260902100644 | 59 | 106 | 2.6 | 6.1 | 0.00 | 0.00 | 0.00 | 78 | 1009.0 |
| 20260902100139 | 59 | 133 | 4.3 | 6.1 | 0.00 | 0.00 | 0.00 | 79 | 1008.6 |
| 20260902095638 | 58 | 113 | 1.7 | 5.2 | 0.00 | 0.00 | 0.00 | 80 | 1009.0 |
| 20260902095138 | 58 | 83 | 3.5 | 5.2 | 0.00 | 0.00 | 0.00 | 81 | 1009.0 |
| 20260902094633 | 57 | 134 | 1.7 | 2.6 | 0.00 | 0.00 | 0.00 | 82 | 1009.0 |
| 20260902094129 | 57 | 135 | 0.0 | 0.0 | 0.00 | 0.00 | 0.00 | 82 | 1009.0 |
| 20260902093623 | 57 | 117 | 1.7 | 2.6 | 0.00 | 0.00 | 0.00 | 82 | 1009.3 |
| 20260902093112 | 57 | 106 | 0.9 | 2.6 | 0.00 | 0.00 | 0.00 | 82 | 1009.3 |
| 20260902092607 | 57 | 152 | 1.7 | 3.5 | 0.00 | 0.00 | 0.00 | 83 | 1009.0 |
| 20260902092102 | 57 | 126 | 1.7 | 3.5 | 0.00 | 0.00 | 0.00 | 84 | 1009.3 |
| 20260902091557 | 57 | 135 | 0.9 | 2.6 | 0.00 | 0.00 | 0.00 | 84 | 1009.3 |
| 20260902091053 | 58 | 124 | 1.7 | 3.5 | 0.00 | 0.00 | 0.00 | 84 | 1009.3 |
| 20260902090549 | 58 | 157 | 2.6 | 2.6 | 0.00 | 0.00 | 0.00 | 84 | 1009.6 |
| 20260902090048 | 58 | 174 | 0.9 | 1.7 | 0.00 | 0.00 | 0.00 | 83 | 1009.6 |
| 20260902085548 | 58 | 176 | 1.7 | 6.1 | 0.00 | 0.00 | 0.00 | 83 | 1009.6 |
| 20260902085043 | 58 | 112 | 0.9 | 5.2 | 0.00 | 0.00 | 0.00 | 83 | 1009.6 |
| 20260902084539 | 58 | 118 | 0.0 | 2.6 | 0.00 | 0.00 | 0.00 | 84 | 1009.6 |
| 20260902084034 | 57 | 184 | 2.6 | 7.0 | 0.00 | 0.00 | 0.00 | 85 | 1009.6 |
| 20260902083524 | 57 | 121 | 2.6 | 7.0 | 0.00 | 0.00 | 0.00 | 88 | 1010.0 |
| 20260902083019 | 56 | 184 | 2.6 | 5.2 | 0.00 | 0.00 | 0.00 | 88 | 1009.6 |
| 20260902082515 | 56 | 101 | 0.9 | 2.6 | 0.00 | 0.00 | 0.00 | 89 | 1010.0 |
| 20260902082011 | 56 | 116 | 1.7 | 3.5 | 0.00 | 0.00 | 0.00 | 89 | 1010.0 |
| 20260902081507 | 56 | 118 | 1.7 | 3.5 | 0.00 | 0.00 | 0.00 | 89 | 1010.0 |
| 20260902081001 | 56 | 164 | 1.7 | 2.6 | 0.00 | 0.00 | 0.00 | 89 | 1010.0 |
| 20260902080457 | 57 | 184 | 3.5 | 5.2 | 0.00 | 0.00 | 0.00 | 89 | 1010.3 |
| 20260902075957 | 57 | 184 | 0.9 | 3.5 | 0.00 | 0.00 | 0.00 | 89 | 1010.0 |
| 20260902075453 | 57 | 162 | 0.9 | 1.7 | 0.00 | 0.00 | 0.00 | 89 | 1010.3 |
| 20260902074949 | 57 | 198 | 1.7 | 2.6 | 0.00 | 0.00 | 0.00 | 89 | 1010.3 |
| 20260902074444 | 57 | 133 | 1.7 | 1.7 | 0.00 | 0.00 | 0.00 | 89 | 1010.3 |
| 20260902073938 | 57 | 159 | 2.6 | 5.2 | 0.00 | 0.00 | 0.00 | 88 | 1010.3 |
| 20260902073434 | 57 | 161 | 1.7 | 2.6 | 0.00 | 0.00 | 0.00 | 88 | 1010.3 |
| 20260902072931 | 57 | 153 | 1.7 | 6.1 | 0.00 | 0.00 | 0.00 | 88 | 1010.3 |
| 20260902072426 | 57 | 155 | 3.5 | 5.2 | 0.00 | 0.00 | 0.00 | 88 | 1010.3 |
| 20260902071922 | 57 | 171 | 1.7 | 3.5 | 0.00 | 0.00 | 0.00 | 88 | 1010.3 |
| 20260902071421 | 57 | 130 | 2.6 | 2.6 | 0.00 | 0.00 | 0.00 | 88 | 1010.3 |
| 20260902070918 | 57 | 137 | 1.7 | 2.6 | 0.00 | 0.00 | 0.00 | 88 | 1010.7 |
| 20260902070414 | 57 | 124 | 0.0 | 3.5 | 0.00 | 0.00 | 0.00 | 88 | 1010.3 |
| 20260902065912 | 57 | 91 | 1.7 | 2.6 | 0.00 | 0.00 | 0.00 | 88 | 1010.7 |
| 20260902065408 | 57 | 134 | 1.7 | 2.6 | 0.00 | 0.00 | 0.00 | 88 | 1010.3 |
| 20260902064903 | 57 | 192 | 1.7 | 3.5 | 0.00 | 0.00 | 0.00 | 88 | 1010.7 |
| 20260902064359 | 57 | 114 | 1.7 | 2.6 | 0.00 | 0.00 | 0.00 | 88 | 1010.7 |
| 20260902063854 | 57 | 168 | 1.7 | 5.2 | 0.00 | 0.00 | 0.00 | 88 | 1010.7 |
| 20260902063348 | 57 | 175 | 5.2 | 6.1 | 0.00 | 0.00 | 0.00 | 88 | 1010.7 |
| 20260902062842 | 57 | 152 | 2.6 | 7.0 | 0.00 | 0.00 | 0.00 | 87 | 1010.7 |
| 20260902062336 | 57 | 120 | 3.5 | 3.5 | 0.00 | 0.00 | 0.00 | 87 | 1010.7 |
| 20260902061831 | 57 | 152 | 1.7 | 3.5 | 0.00 | 0.00 | 0.00 | 87 | 1010.7 |
| 20260902061326 | 57 | 161 | 3.5 | 5.2 | 0.00 | 0.00 | 0.00 | 87 | 1010.7 |
| 20260902060823 | 57 | 99 | 1.7 | 2.6 | 0.00 | 0.00 | 0.00 | 87 | 1010.7 |
| 20260902060318 | 57 | 148 | 0.9 | 1.7 | 0.00 | 0.00 | 0.00 | 86 | 1011.0 |
| 20260902055813 | 58 | 160 | 1.7 | 1.7 | 0.00 | 0.00 | 0.00 | 85 | 1010.7 |
| 20260902055309 | 58 | 168 | 0.9 | 1.7 | 0.00 | 0.00 | 0.00 | 85 | 1010.7 |
| 20260902054804 | 58 | 156 | 1.7 | 1.7 | 0.00 | 0.00 | 0.00 | 84 | 1011.0 |
| 20260902054300 | 59 | 117 | 0.9 | 3.5 | 0.00 | 0.00 | 0.00 | 84 | 1011.0 |
| 20260902053755 | 59 | 124 | 0.0 | 1.7 | 0.00 | 0.00 | 0.00 | 83 | 1011.0 |
| 20260902053254 | 59 | 172 | 2.6 | 2.6 | 0.00 | 0.00 | 0.00 | 82 | 1011.0 |
| 20260902052748 | 60 | 102 | 1.7 | 1.7 | 0.00 | 0.00 | 0.00 | 82 | 1011.3 |
| 20260902052243 | 60 | 156 | 1.7 | 2.6 | 0.00 | 0.00 | 0.00 | 82 | 1011.3 |
| 20260902051738 | 60 | 114 | 0.9 | 2.6 | 0.00 | 0.00 | 0.00 | 82 | 1011.3 |
| 20260902051232 | 59 | 159 | 0.9 | 0.9 | 0.00 | 0.00 | 0.00 | 83 | 1011.3 |
| 20260902050727 | 59 | 159 | 0.0 | 0.9 | 0.00 | 0.00 | 0.00 | 83 | 1011.3 |
| 20260902050223 | 59 | 189 | 0.0 | 1.7 | 0.00 | 0.00 | 0.00 | 84 | 1011.3 |
| 20260902045723 | 59 | 191 | 0.0 | 0.0 | 0.00 | 0.00 | 0.00 | 84 | 1011.3 |
| 20260902045219 | 59 | 191 | 0.0 | 0.9 | 0.00 | 0.00 | 0.00 | 84 | 1011.3 |
| 20260902044714 | 59 | 191 | 0.0 | 0.0 | 0.00 | 0.00 | 0.00 | 83 | 1011.3 |
| 20260902044209 | 59 | 191 | 0.0 | 0.0 | 0.00 | 0.00 | 0.00 | 83 | 1011.3 |
| 20260902043704 | 59 | 191 | 0.0 | 0.0 | 0.00 | 0.00 | 0.00 | 83 | 1011.3 |
| 20260902043200 | 59 | 191 | 0.0 | 0.9 | 0.00 | 0.00 | 0.00 | 82 | 1011.3 |
| 20260902042659 | 59 | 191 | 0.0 | 0.0 | 0.00 | 0.00 | 0.00 | 82 | 1011.3 |
| 20260902042154 | 59 | 191 | 0.0 | 0.0 | 0.00 | 0.00 | 0.00 | 81 | 1011.3 |
| 20260902041654 | 60 | 191 | 0.0 | 0.9 | 0.00 | 0.00 | 0.00 | 81 | 1011.3 |